Pine Forest High School FL US WEATHERSTEM current weather conditions

sailwx.info

Wind from 109 at 8 knots gusting 10

Air temperature 17.6° C
Dewpoint 17.0° C

Last reported at 2020-Jan-18 18:50 UTC.
Time now 2020-Jan-18 19:39 UTC

Location: N 30°29' W 087°18'.
View on Google Maps.

See reports from other nearby stations

  
Tides and Currents Weather Stations Pressure Air Temp Water Temp Dewpoint Dewpoint Depression Visibility Wind Speed Wind Dir Waves Ship Positions
date/time (UTC)wind fromknots sea level pressurealtimeterstation pressurevisibilityair tempwater tempwave heightnotes
2020-Jan-18 18:50 109 8 gusting 10 17.6
2020-Jan-18 18:40 092 6 gusting 13 17.4
2020-Jan-18 18:30 102 9 gusting 13 17.4
2020-Jan-18 18:20 103 9 gusting 13 17.2
2020-Jan-18 18:10 122 7 gusting 13 17.1
2020-Jan-18 18:00 104 7 gusting 13 16.8
2020-Jan-18 17:50 094 8 gusting 11 16.6
2020-Jan-18 17:40 130 6 gusting 11 16.6
2020-Jan-18 17:30 083 6 gusting 11 16.5
2020-Jan-18 17:20 095 9 gusting 13 16.3
2020-Jan-18 17:10 115 9 gusting 14 16.2
2020-Jan-18 17:00 092 3 gusting 9 15.9
2020-Jan-18 16:50 115 6 gusting 10 15.9
2020-Jan-18 16:40 088 6 gusting 9 15.7
2020-Jan-18 16:30 134 6 gusting 10 15.6
2020-Jan-18 16:10 108 9 gusting 13 15.3
2020-Jan-18 16:00 089 9 gusting 12 15.2
2020-Jan-18 15:50 108 11 gusting 11 14.9
2020-Jan-18 15:40 090 6 gusting 15 14.8
2020-Jan-18 15:30 107 9 gusting 13 14.7
2020-Jan-18 15:20 090 6 gusting 12 14.6
2020-Jan-18 15:00 108 8 gusting 10 14.4
2020-Jan-18 14:50 088 9 gusting 12 14.4
2020-Jan-18 14:40 081 9 gusting 13 14.4
2020-Jan-18 14:30 087 9 gusting 13 14.4
2020-Jan-18 14:20 096 9 gusting 13 14.3
2020-Jan-18 14:10 070 10 gusting 15 14.4
2020-Jan-18 14:00 077 7 gusting 12 14.5
2020-Jan-18 13:50 118 8 gusting 13 14.6
2020-Jan-18 13:40 101 9 gusting 13 14.7
2020-Jan-18 13:30 109 6 gusting 14 14.7
2020-Jan-18 13:20 101 12 gusting 15 14.7
2020-Jan-18 13:10 089 10 gusting 17 14.7
2020-Jan-18 13:00 101 10 gusting 17 14.8
2020-Jan-18 12:50 097 11 gusting 19 15.1
2020-Jan-18 12:40 103 6 gusting 16 15.3
2020-Jan-18 12:30 090 9 gusting 18 15.3
2020-Jan-18 12:20 105 11 gusting 17 15.3
2020-Jan-18 12:10 110 9 gusting 17 15.4
2020-Jan-18 12:00 107 6 gusting 13 15.3
2020-Jan-18 11:50 080 14 gusting 18 15.3
2020-Jan-18 11:40 102 9 gusting 16 15.2
2020-Jan-18 11:30 084 13 gusting 18 15.2
2020-Jan-18 11:20 088 16 gusting 18 15.2
2020-Jan-18 11:10 153 7 gusting 19 15.3
2020-Jan-18 11:00 101 15 gusting 19 15.3
2020-Jan-18 10:50 098 9 gusting 17 15.4
2020-Jan-18 10:40 091 11 gusting 17 15.5
2020-Jan-18 10:30 090 13 gusting 19 15.5
2020-Jan-18 10:20 103 6 gusting 16 15.5
2020-Jan-18 10:10 073 7 gusting 21 15.6
2020-Jan-18 10:00 084 12 gusting 18 15.7
2020-Jan-18 09:50 101 6 gusting 19 15.9
2020-Jan-18 09:40 070 8 gusting 18 16.0
2020-Jan-18 09:30 089 15 gusting 20 16.0
2020-Jan-18 09:20 076 12 gusting 18 16.1
2020-Jan-18 09:10 072 13 gusting 22 16.2
2020-Jan-18 09:00 067 14 gusting 21 16.3
2020-Jan-18 08:50 071 13 gusting 22 16.4
2020-Jan-18 08:40 113 10 gusting 19 16.4
2020-Jan-18 08:30 086 17 gusting 19 16.5
2020-Jan-18 08:20 090 13 gusting 21 16.5
2020-Jan-18 08:10 104 11 gusting 17 16.6
2020-Jan-18 07:50 093 15 gusting 20 16.7
2020-Jan-18 07:40 106 12 gusting 21 16.8
2020-Jan-18 07:30 101 9 gusting 21 16.9
2020-Jan-18 07:20 092 12 gusting 18 16.9
2020-Jan-18 07:10 106 13 gusting 20 16.8
2020-Jan-18 07:00 109 12 gusting 19 16.9
2020-Jan-18 06:40 092 13 gusting 22 17.1
2020-Jan-18 06:30 098 13 gusting 19 17.1
2020-Jan-18 06:20 100 6 gusting 21 17.1
2020-Jan-18 06:10 094 10 gusting 16 17.1
2020-Jan-18 06:00 113 10 gusting 18 17.0
2020-Jan-18 05:40 090 10 gusting 21 17.2
2020-Jan-18 05:30 096 16 gusting 23 17.2
2020-Jan-18 05:20 090 13 gusting 18 17.3
2020-Jan-18 05:10 096 13 gusting 19 17.4
2020-Jan-18 05:00 086 12 gusting 21 17.6
2020-Jan-18 04:40 112 16 gusting 19 18.0
2020-Jan-18 04:30 094 9 gusting 23 18.3
2020-Jan-18 04:20 092 16 gusting 24 18.5
2020-Jan-18 04:10 125 17 gusting 21 18.7
2020-Jan-18 04:00 095 10 gusting 18 18.8
2020-Jan-18 03:50 100 13 gusting 18 19.0
2020-Jan-18 03:40 098 12 gusting 23 19.1
2020-Jan-18 03:30 100 18 gusting 22 19.3
2020-Jan-18 03:20 107 13 gusting 18 19.3
2020-Jan-18 03:10 123 14 gusting 16 19.1
2020-Jan-18 03:00 075 8 gusting 11 19.1
2020-Jan-18 02:50 084 6 gusting 18 19.2
2020-Jan-18 02:40 099 7 gusting 14 19.3
2020-Jan-18 02:30 090 10 gusting 13 19.3
2020-Jan-18 02:20 104 6 gusting 17 19.4
2020-Jan-18 02:10 089 10 gusting 15 19.4
2020-Jan-18 02:00 098 10 gusting 16 19.4
2020-Jan-18 01:50 089 7 gusting 15 19.5
2020-Jan-18 01:40 102 11 gusting 17 19.6
2020-Jan-18 01:30 117 9 gusting 13 19.4
2020-Jan-18 01:20 121 3 gusting 14 19.4
2020-Jan-18 01:10 103 12 gusting 14 19.4
2020-Jan-18 00:50 096 10 gusting 13 19.5
2020-Jan-18 00:40 101 8 gusting 14 19.6
2020-Jan-18 00:30 105 8 gusting 13 19.6
2020-Jan-18 00:20 113 6 gusting 13 19.5
2020-Jan-18 00:10 131 6 gusting 13 19.4
2020-Jan-18 00:00 100 6 gusting 13 19.3
2020-Jan-17 23:50 086 6 gusting 12 19.1
2020-Jan-17 23:40 132 8 gusting 10 19.1
2020-Jan-17 23:30 115 7 gusting 10 19.0
2020-Jan-17 23:20 096 7 gusting 10 19.1
2020-Jan-17 23:10 083 6 gusting 12 19.2
2020-Jan-17 23:00 084 7 gusting 12 19.2
2020-Jan-17 22:50 100 6 gusting 15 19.3
2020-Jan-17 22:40 092 6 gusting 14 19.3
2020-Jan-17 22:30 080 9 gusting 13 19.3
2020-Jan-17 22:20 113 7 gusting 13 19.2
2020-Jan-17 22:10 088 10 gusting 15 19.2
2020-Jan-17 22:00 091 9 gusting 15 19.2
2020-Jan-17 21:50 107 9 gusting 14 19.1
2020-Jan-17 21:40 098 12 gusting 15 19.1
2020-Jan-17 21:30 109 9 gusting 15 19.1
2020-Jan-17 21:20 098 9 gusting 12 19.1
2020-Jan-17 21:10 102 8 gusting 12 19.2
2020-Jan-17 21:00 110 12 gusting 14 19.3
2020-Jan-17 20:50 097 6 gusting 18 19.4
2020-Jan-17 20:40 097 10 gusting 13 19.6
2020-Jan-17 20:20 111 8 gusting 14 19.6
2020-Jan-17 20:10 124 13 gusting 16 19.4
2020-Jan-17 20:00 105 10 gusting 15 19.6
2020-Jan-17 19:50 088 10 gusting 17 19.5
2020-Jan-17 19:40 119 9 gusting 19 19.8
2020-Jan-17 19:30 127 13 gusting 19 19.9
2020-Jan-17 19:20 107 12 gusting 19 19.8
2020-Jan-17 19:10 093 13 gusting 18 19.9
2020-Jan-17 19:00 097 20 gusting 20 20.1
2020-Jan-17 18:50 116 12 gusting 17 20.3
2020-Jan-17 18:40 112 13 gusting 15 20.1
2020-Jan-17 18:30 108 9 gusting 13 20.1
2020-Jan-17 18:20 130 10 gusting 15 19.9
2020-Jan-17 18:10 121 9 gusting 13 19.8
2020-Jan-17 18:00 134 10 gusting 13 19.6
2020-Jan-17 17:50 090 7 gusting 18 19.6
2020-Jan-17 17:40 209 6 gusting 15 19.6
2020-Jan-17 17:30 104 14 gusting 18 19.7
2020-Jan-17 17:20 079 7 gusting 16 19.5
2020-Jan-17 17:10 107 10 gusting 17 19.6
2020-Jan-17 17:00 105 14 gusting 23 19.2
2020-Jan-17 16:40 086 13 gusting 22 18.6
2020-Jan-17 16:30 099 10 gusting 17 18.3
2020-Jan-17 16:20 094 16 gusting 19 17.9
2020-Jan-17 16:10 085 9 gusting 19 17.4
2020-Jan-17 16:00 107 5 gusting 18 16.8
2020-Jan-17 15:50 116 13 gusting 19 16.3
2020-Jan-17 15:40 104 13 gusting 19 15.9
2020-Jan-17 15:30 082 15 gusting 17 15.7
2020-Jan-17 15:20 079 10 gusting 17 15.3
2020-Jan-17 15:10 083 9 gusting 16 14.9
2020-Jan-17 15:00 078 11 gusting 13 14.6
2020-Jan-17 14:50 067 9 gusting 13 14.1
2020-Jan-17 14:40 080 13 gusting 13 13.8
2020-Jan-17 14:20 082 8 gusting 13 13.3
2020-Jan-17 14:10 076 3 gusting 13 13.2
2020-Jan-17 14:00 065 10 gusting 12 12.9
2020-Jan-17 13:50 072 5 gusting 12 12.6
2020-Jan-17 13:40 070 6 gusting 9 12.4
2020-Jan-17 13:30 072 5 gusting 11 12.3
2020-Jan-17 13:20 075 6 gusting 10 12.0
2020-Jan-17 13:10 077 8 gusting 10 11.8
2020-Jan-17 13:00 071 5 gusting 7 11.6
2020-Jan-17 12:50 071 6 gusting 6 11.4
2020-Jan-17 12:30 035 5 gusting 7 11.4
2020-Jan-17 12:20 055 5 gusting 7 11.4
2020-Jan-17 12:10 059 6 gusting 8 11.5
2020-Jan-17 12:00 045 6 gusting 8 11.6
2020-Jan-17 11:50 042 3 gusting 7 11.7
2020-Jan-17 11:40 057 4 gusting 8 11.8
2020-Jan-17 11:30 068 5 gusting 9 11.9
2020-Jan-17 11:20 059 4 gusting 8 12.0
2020-Jan-17 11:10 048 4 gusting 8 12.1
2020-Jan-17 11:00 059 3 gusting 9 12.2
2020-Jan-17 10:50 060 5 gusting 9 12.3
2020-Jan-17 10:40 049 4 gusting 10 12.4
2020-Jan-17 10:30 035 5 gusting 8 12.5
2020-Jan-17 10:20 035 5 gusting 10 12.6
2020-Jan-17 10:10 067 5 gusting 9 12.7
2020-Jan-17 10:00 038 5 gusting 10 12.8
2020-Jan-17 09:50 065 7 gusting 12 12.8
2020-Jan-17 09:40 071 4 gusting 10 12.9
2020-Jan-17 09:30 067 5 gusting 10 13.1
2020-Jan-17 09:20 061 7 gusting 10 13.1
2020-Jan-17 09:00 050 6 gusting 8 13.3
2020-Jan-17 08:40 079 6 gusting 9 13.6
2020-Jan-17 08:30 057 6 gusting 11 13.6
2020-Jan-17 08:20 055 6 gusting 12 13.7
2020-Jan-17 08:10 053 5 gusting 9 13.7
2020-Jan-17 08:00 049 5 gusting 7 13.8
2020-Jan-17 07:50 076 4 gusting 7 13.9
2020-Jan-17 07:40 059 3 gusting 7 14.0
2020-Jan-17 07:30 040 3 gusting 7 14.1
2020-Jan-17 07:20 055 5 gusting 8 14.2
2020-Jan-17 07:10 064 5 gusting 7 14.3
2020-Jan-17 07:00 064 5 gusting 7 14.4
2020-Jan-17 06:50 048 7 gusting 9 14.6
2020-Jan-17 06:40 072 6 gusting 8 14.7
2020-Jan-17 06:30 037 6 gusting 10 14.8
2020-Jan-17 06:20 034 9 gusting 10 14.9
2020-Jan-17 06:10 037 9 gusting 12 15.1
2020-Jan-17 06:00 042 9 gusting 14 15.1
2020-Jan-17 05:40 043 6 gusting 8 15.3
2020-Jan-17 05:30 053 7 gusting 9 15.4
2020-Jan-17 05:20 038 7 gusting 10 15.6
2020-Jan-17 05:00 062 7 gusting 10 15.8
2020-Jan-17 04:50 055 9 gusting 13 15.9
2020-Jan-17 04:40 053 6 gusting 12 16.0
2020-Jan-17 04:30 046 6 gusting 14 16.1
2020-Jan-17 04:20 036 6 gusting 13 16.2
2020-Jan-17 04:10 042 6 gusting 11 16.3
2020-Jan-17 04:00 042 8 gusting 11 16.3
2020-Jan-17 03:50 055 3 gusting 11 16.5
2020-Jan-17 03:40 027 4 gusting 11 16.6
2020-Jan-17 03:30 046 8 gusting 11 16.7
2020-Jan-17 03:20 015 6 gusting 11 16.8
2020-Jan-17 03:10 044 5 gusting 13 17.0
2020-Jan-17 03:00 049 9 gusting 14 17.2
2020-Jan-17 02:50 040 8 gusting 14 17.3
2020-Jan-17 02:40 013 2 gusting 14 17.5
2020-Jan-17 02:30 018 13 gusting 15 17.7
2020-Jan-17 02:20 038 10 gusting 16 17.9
2020-Jan-17 02:10 063 8 gusting 17 18.1
2020-Jan-17 01:50 044 6 gusting 14 18.4
2020-Jan-17 01:40 064 10 gusting 16 18.7
2020-Jan-17 01:30 009 6 gusting 15 18.8
2020-Jan-17 01:20 014 10 gusting 16 19.2
2020-Jan-17 01:10 030 10 gusting 13 19.4
2020-Jan-17 01:00 011 7 gusting 13 19.8
2020-Jan-17 00:50 005 9 gusting 13 19.9
2020-Jan-17 00:40 351 4 gusting 10 20.2
2020-Jan-17 00:30 028 11 gusting 13 20.3
2020-Jan-17 00:20 044 5 gusting 14 20.6
2020-Jan-17 00:10 038 10 gusting 15 20.7
2020-Jan-17 00:00 036 15 gusting 18 20.9
2020-Jan-16 23:50 025 12 gusting 18 21.1
2020-Jan-16 23:30 005 7 gusting 12 21.4
2020-Jan-16 23:20 024 5 gusting 11 21.6
2020-Jan-16 23:10 011 6 gusting 11 21.8
2020-Jan-16 23:00 005 5 gusting 10 22.1
2020-Jan-16 22:50 022 5 gusting 9 22.2
2020-Jan-16 22:30 040 3 gusting 11 22.4
2020-Jan-16 22:20 022 3 gusting 10 22.5
2020-Jan-16 22:10 019 6 gusting 9 22.7
2020-Jan-16 22:00 024 6 gusting 11 22.7
2020-Jan-16 21:50 028 7 gusting 13 22.6
2020-Jan-16 21:40 033 5 gusting 10 22.6
2020-Jan-16 21:30 036 5 gusting 9 22.6
2020-Jan-16 21:20 047 4 gusting 9 22.8
2020-Jan-16 21:10 044 4 gusting 8 22.9
2020-Jan-16 21:00 005 7 gusting 8 22.8
2020-Jan-16 20:40 037 4 gusting 7 22.9
2020-Jan-16 20:30 360 4 gusting 8 22.9
2020-Jan-16 20:20 037 5 gusting 10 22.9
2020-Jan-16 20:10 045 5 gusting 9 22.9
2020-Jan-16 20:00 355 4 gusting 8 22.9
2020-Jan-16 19:50 360 7 gusting 11 22.8
2020-Jan-16 19:40 030 3 gusting 9 22.9
2020-Jan-16 19:30 322 4 gusting 11 22.7
2020-Jan-16 19:20 022 7 gusting 12 22.8
2020-Jan-16 19:10 031 7 gusting 13 22.9
2020-Jan-16 19:00 355 10 gusting 11 23.1